When you browse on this site, cookies collect data to enhance your experience and personalize the content and advertising you see.
Visit our Privacy Policy to learn more. By continuing to use the site, you agree to this use of cookies and data.
  • In Österreich
  • Länderverzeichnis
  • Für 7 Tage
  • Wassertemperatur
  • Satellitenkarten
  • Wetterkarte
  • News
  • Widgets
  • user-avatar
    Anmelden

    Stündliche Wetter Las Tablas

    Heute, 12 Dezember, Mittwoch

    Zeit Temperatur Niederschläge Wind Luftdruck Luftfeuchtigkeit
    00:00 +26°C° 0 mm 6 m/S 753 mmHg 82%
    01:00 +26°C° 0 mm 6 m/S 753 mmHg 82%
    02:00 +26°C° 0 mm 6 m/S 753 mmHg 83%
    03:00 +26°C° 0 mm 6 m/S 753 mmHg 83%
    04:00 +26°C° 0 mm 6 m/S 753 mmHg 83%
    05:00 +26°C° 0 mm 6 m/S 753 mmHg 83%
    06:00 +26°C° 0 mm 6 m/S 753 mmHg 84%
    07:00 +26°C° 0 mm 6 m/S 753 mmHg 84%
    08:00 +27°C° 0 mm 6 m/S 754 mmHg 80%
    09:00 +28°C° 0 mm 7 m/S 754 mmHg 75%
    10:00 +30°C° 0 mm 7 m/S 754 mmHg 71%
    11:00 +30°C° 0 mm 7 m/S 754 mmHg 70%
    12:00 +32°C° 0 mm 7 m/S 753 mmHg 68%
    13:00 +33°C° 0 mm 7 m/S 753 mmHg 66%
    14:00 +32°C° 0 mm 7 m/S 752 mmHg 67%
    15:00 +32°C° 0 mm 7 m/S 752 mmHg 68%
    16:00 +32°C° 0 mm 6 m/S 751 mmHg 68%
    17:00 +30°C° 0 mm 6 m/S 751 mmHg 72%
    18:00 +29°C° 0 mm 6 m/S 751 mmHg 75%
    19:00 +28°C° 0 mm 6 m/S 752 mmHg 78%
    20:00 +27°C° 0 mm 6 m/S 752 mmHg 79%
    21:00 +27°C° 0 mm 6 m/S 753 mmHg 80%
    22:00 +27°C° 0 mm 5 m/S 753 mmHg 81%
    23:00 +27°C° 0 mm 5 m/S 753 mmHg 81%

    Morgen, 13 Dezember, Donnerstag

    Zeit Temperatur Niederschläge Wind Luftdruck Luftfeuchtigkeit
    00:00 +26°C° 0 mm 5 m/S 753 mmHg 82%
    01:00 +26°C° 0 mm 5 m/S 753 mmHg 83%
    02:00 +26°C° 0 mm 5 m/S 753 mmHg 83%
    03:00 +26°C° 0 mm 4 m/S 752 mmHg 84%
    04:00 +26°C° 0 mm 4 m/S 752 mmHg 84%
    05:00 +26°C° 0 mm 4 m/S 752 mmHg 84%
    06:00 +26°C° 0 mm 4 m/S 752 mmHg 85%
    07:00 +26°C° 0 mm 4 m/S 753 mmHg 85%
    08:00 +27°C° 0 mm 5 m/S 753 mmHg 80%
    09:00 +29°C° 0 mm 5 m/S 754 mmHg 75%
    10:00 +30°C° 0 mm 5 m/S 754 mmHg 70%
    11:00 +32°C° 0 mm 5 m/S 754 mmHg 68%
    12:00 +32°C° 0 mm 5 m/S 753 mmHg 66%
    13:00 +33°C° 0 mm 4 m/S 753 mmHg 64%
    14:00 +33°C° 0 mm 4 m/S 752 mmHg 64%
    15:00 +33°C° 0 mm 4 m/S 752 mmHg 65%
    16:00 +33°C° 0 mm 3 m/S 751 mmHg 65%
    17:00 +32°C° 0 mm 4 m/S 751 mmHg 70%
    18:00 +30°C° 0 mm 4 m/S 751 mmHg 74%
    19:00 +28°C° 0 mm 4 m/S 752 mmHg 79%
    20:00 +28°C° 0.1 mm 4 m/S 752 mmHg 80%
    21:00 +28°C° 0.1 mm 4 m/S 753 mmHg 81%
    22:00 +27°C° 0.1 mm 3 m/S 753 mmHg 82%
    23:00 +27°C° 0 mm 3 m/S 753 mmHg 83%

    übermorgen, 14 Dezember, Freitag

    Zeit Temperatur Niederschläge Wind Luftdruck Luftfeuchtigkeit
    00:00 +27°C° 0 mm 3 m/S 753 mmHg 84%
    01:00 +27°C° 0 mm 3 m/S 752 mmHg 85%
    02:00 +26°C° 0 mm 3 m/S 752 mmHg 86%
    03:00 +26°C° 0 mm 3 m/S 752 mmHg 87%
    04:00 +26°C° 0 mm 3 m/S 752 mmHg 88%
    05:00 +26°C° 0 mm 3 m/S 752 mmHg 87%
    06:00 +26°C° 0 mm 3 m/S 752 mmHg 87%
    07:00 +26°C° 0 mm 3 m/S 753 mmHg 87%
    08:00 +28°C° 0 mm 3 m/S 753 mmHg 81%
    09:00 +29°C° 0 mm 3 m/S 754 mmHg 75%
    10:00 +30°C° 0 mm 3 m/S 754 mmHg 70%
    11:00 +31°C° 0 mm 3 m/S 754 mmHg 68%
    12:00 +33°C° 0 mm 3 m/S 753 mmHg 66%
    13:00 +33°C° 0 mm 3 m/S 752 mmHg 64%
    14:00 +33°C° 0.1 mm 3 m/S 752 mmHg 65%
    15:00 +33°C° 0.1 mm 3 m/S 751 mmHg 65%
    16:00 +33°C° 0.1 mm 3 m/S 751 mmHg 66%
    17:00 +31°C° 0.4 mm 2 m/S 751 mmHg 72%
    18:00 +30°C° 0.4 mm 2 m/S 751 mmHg 77%
    19:00 +28°C° 0.4 mm 2 m/S 752 mmHg 83%
    20:00 +28°C° 0.5 mm 2 m/S 752 mmHg 84%
    21:00 +28°C° 0.5 mm 2 m/S 753 mmHg 85%
    22:00 +27°C° 0.5 mm 2 m/S 754 mmHg 86%
    23:00 +27°C° 0.1 mm 2 m/S 753 mmHg 86%

    15 Dezember, Samstag

    Zeit Temperatur Niederschläge Wind Luftdruck Luftfeuchtigkeit
    00:00 +27°C° 0.1 mm 2 m/S 753 mmHg 86%
    01:00 +27°C° 0.1 mm 2 m/S 753 mmHg 87%
    02:00 +27°C° 0.1 mm 2 m/S 753 mmHg 87%
    03:00 +26°C° 0.1 mm 2 m/S 752 mmHg 87%
    04:00 +26°C° 0.1 mm 2 m/S 752 mmHg 88%
    05:00 +26°C° 0 mm 2 m/S 753 mmHg 87%
    06:00 +26°C° 0 mm 2 m/S 753 mmHg 87%
    07:00 +27°C° 0 mm 2 m/S 754 mmHg 87%
    08:00 +28°C° 0 mm 2 m/S 754 mmHg 82%
    09:00 +29°C° 0 mm 3 m/S 754 mmHg 77%
    10:00 +30°C° 0 mm 3 m/S 755 mmHg 72%
    11:00 +32°C° 0.1 mm 4 m/S 754 mmHg 70%
    12:00 +32°C° 0.1 mm 4 m/S 754 mmHg 69%
    13:00 +33°C° 0.1 mm 4 m/S 753 mmHg 67%
    14:00 +33°C° 0.2 mm 4 m/S 752 mmHg 68%
    15:00 +32°C° 0.2 mm 4 m/S 752 mmHg 70%
    16:00 +32°C° 0.2 mm 5 m/S 751 mmHg 71%
    17:00 +30°C° 0.3 mm 5 m/S 752 mmHg 75%
    18:00 +29°C° 0.3 mm 5 m/S 752 mmHg 78%
    19:00 +28°C° 0.3 mm 5 m/S 753 mmHg 82%
    20:00 +27°C° 0 mm 5 m/S 753 mmHg 83%
    21:00 +27°C° 0 mm 5 m/S 754 mmHg 83%
    22:00 +27°C° 0 mm 5 m/S 754 mmHg 84%
    23:00 +26°C° 0 mm 5 m/S 754 mmHg 84%

    16 Dezember, Sonntag

    Zeit Temperatur Niederschläge Wind Luftdruck Luftfeuchtigkeit
    00:00 +26°C° 0 mm 5 m/S 754 mmHg 85%
    01:00 +26°C° 0 mm 5 m/S 753 mmHg 85%
    02:00 +26°C° 0 mm 5 m/S 753 mmHg 85%
    03:00 +26°C° 0 mm 5 m/S 753 mmHg 85%
    04:00 +26°C° 0 mm 6 m/S 752 mmHg 85%
    05:00 +26°C° 0 mm 6 m/S 753 mmHg 85%
    06:00 +26°C° 0 mm 6 m/S 753 mmHg 84%
    07:00 +26°C° 0 mm 6 m/S 754 mmHg 84%
    08:00 +27°C° 0 mm 6 m/S 754 mmHg 79%
    09:00 +28°C° 0 mm 7 m/S 754 mmHg 75%
    10:00 +30°C° 0 mm 7 m/S 755 mmHg 71%
    11:00 +30°C° 0 mm 7 m/S 754 mmHg 68%
    12:00 +32°C° 0 mm 6 m/S 753 mmHg 66%
    13:00 +33°C° 0 mm 6 m/S 753 mmHg 64%
    14:00 +33°C° 0 mm 5 m/S 752 mmHg 64%
    15:00 +33°C° 0 mm 5 m/S 751 mmHg 64%
    16:00 +33°C° 0 mm 5 m/S 751 mmHg 64%
    17:00 +30°C° 0 mm 5 m/S 751 mmHg 68%
    18:00 +29°C° 0 mm 5 m/S 752 mmHg 72%
    19:00 +28°C° 0 mm 5 m/S 752 mmHg 76%
    20:00 +28°C° 0 mm 4 m/S 753 mmHg 77%
    21:00 +27°C° 0 mm 4 m/S 753 mmHg 78%
    22:00 +27°C° 0 mm 4 m/S 753 mmHg 79%
    23:00 +27°C° 0 mm 4 m/S 753 mmHg 80%

    17 Dezember, Montag

    Zeit Temperatur Niederschläge Wind Luftdruck Luftfeuchtigkeit
    00:00 +26°C° 0 mm 4 m/S 753 mmHg 80%
    01:00 +26°C° 0 mm 4 m/S 753 mmHg 81%
    02:00 +26°C° 0 mm 4 m/S 752 mmHg 82%
    03:00 +26°C° 0 mm 4 m/S 752 mmHg 82%
    04:00 +26°C° 0 mm 3 m/S 752 mmHg 83%
    05:00 +26°C° 0 mm 4 m/S 752 mmHg 83%
    06:00 +26°C° 0 mm 4 m/S 753 mmHg 83%
    07:00 +26°C° 0 mm 4 m/S 753 mmHg 84%
    08:00 +27°C° 0 mm 5 m/S 754 mmHg 80%
    09:00 +28°C° 0 mm 5 m/S 754 mmHg 77%
    10:00 +30°C° 0 mm 6 m/S 754 mmHg 73%
    11:00 +30°C° 0 mm 6 m/S 754 mmHg 71%
    12:00 +32°C° 0 mm 6 m/S 753 mmHg 69%
    13:00 +32°C° 0 mm 6 m/S 753 mmHg 67%
    14:00 +32°C° 0.1 mm 5 m/S 752 mmHg 68%
    15:00 +32°C° 0.1 mm 5 m/S 752 mmHg 68%
    16:00 +32°C° 0.1 mm 5 m/S 751 mmHg 68%
    17:00 +30°C° 0 mm 5 m/S 752 mmHg 72%
    18:00 +29°C° 0 mm 5 m/S 752 mmHg 75%
    19:00 +28°C° 0 mm 6 m/S 753 mmHg 78%
    20:00 +27°C° 0 mm 6 m/S 753 mmHg 79%
    21:00 +27°C° 0 mm 5 m/S 753 mmHg 80%
    22:00 +26°C° 0 mm 5 m/S 754 mmHg 81%
    23:00 +26°C° 0 mm 5 m/S 753 mmHg 82%
    Mehr zeigen